Regional Weather Roundup
Issued by NWS Jackson, KY

Home | Current Version | Previous Version | Graphics & Text | Print | Product List | Glossary On
Versions: 1 2 3 4 5 6 7 8 9 10 11 12 13 14 15 16 17 18 19 20 21 22 23 24 25 26 27 28 29 30 31 32 33 34 35 36 37 38 39 40 41 42 43 44 45 46 47 48 49 50
000
ASUS43 KJKL 282110
RWRJKL

EAST KENTUCKY HOURLY WEATHER ROUNDUP
NATIONAL WEATHER SERVICE JACKSON KY
500 PM EDT SAT MAY 28 2016

NOTE: "FAIR" INDICATES FEW OR NO CLOUDS BELOW 12,000 FEET WITH
NO SIGNIFICANT WEATHER AND/OR OBSTRUCTIONS TO VISIBILITY.

* THESE REPORTS ARE NOT UNDER NWS QUALITY CONTROL AND MAY NOT
  REPORT WEATHER SUCH AS PRECIPITATION AND FOG.

KYZ079-080-083-085-087-088-110-112-115-119-120-282200
...EASTERN KENTUCKY...

CITY           SKY/WX    TMP DP  RH WIND       PRES   REMARKS
JACKSON        SUNNY     83  65  54 VRB3      30.12F
LONDON         SUNNY     82  61  48 CALM      30.11F
SOMERSET*      MOSUNNY   82  61  47 SW6       30.11S
MONTICELLO*    MOSUNNY   83  66  56 E7        30.11F
WILLIAMSBURG*  CLEAR     82  61  47 CALM      30.11F
MIDDLESBORO*   SUNNY     84  60  44 SW3       30.12S
HARLAN APT*      N/A     82  59  44 CALM      30.13S
HAZARD APT*    PTCLDY    82  66  57 CALM      30.12S
BLACK MTN*       N/A     75  59  57 S1          N/A
PIKE CO APT*     N/A     81  63  53 CALM      30.13S
BIG SANDY APT* CLOUDY    83  66  56 W3        30.11S
MOREHEAD APT*  MOCLDY    82  63  51 SW9       30.12S
ASHLAND*       MOSUNNY   88  66  48 S7        30.05S HX  90
$$

KYZ035-036-041-042-044-050-067-078-099-282200
...CENTRAL KENTUCKY...

CITY           SKY/WX    TMP DP  RH WIND       PRES   REMARKS
MT STERLING*   SUNNY     82  63  51 SW3       30.12S
FLEMING/MASON* PTSUNNY  N/A N/A N/A S8        30.10S
DANVILLE*      MOSUNNY   86  63  45 SW7       30.11S
RICHMOND*      MOSUNNY   84  63  48 SW6       30.10S
LEXINGTON      SUNNY     84  60  44 SW12      30.10S
FRANKFORT      MOSUNNY   85  59  41 SW16      30.07F
LOUISVILLE     PTSUNNY   81  66  60 S14       30.06S
LEBANON*         N/A     77  64  65 S7        30.11R
GLASGOW*       CLOUDY    74  65  73 S3        30.11R
BOWLING GREEN  CLOUDY    79  68  69 S10       30.08F
$$

KYZ091>093-OHZ055-061-077-WVZ005-015-034-035-042-282200
...SOUTHERN OHIO/WEST VIRGINIA...

CITY           SKY/WX    TMP DP  RH WIND       PRES   REMARKS
COVINGTON      PTSUNNY   83  64  52 S9        30.07F
COLUMBUS       CLOUDY    70  66  87 W6        30.09F
DAYTON         CLOUDY    79  66  64 S9        30.08S
WILMINGTON     TSTM      74  65  73 W16       30.08S
HUNTINGTON       N/A     86  63  45 S6        30.08F
CHARLESTON       N/A     86  63  45 W3        30.09F
PINEVILLE*       N/A     86  46  24 MISG      30.18S
BECKLEY          N/A     81  49  32 S10       30.18F
BLUEFIELD        N/A     78  50  37 SE9       30.21F
LOGAN CO APT*    N/A     82  59  44 CALM      30.13S
$$

VAZ002-007-008-TNZ017-027-036-066-071-282200
...SOUTHWEST VIRGINIA/EAST TENNESSEE...

CITY           SKY/WX    TMP DP  RH WIND       PRES   REMARKS
WISE*            N/A     81  46  30 S6        30.21S
JONESVILLE*      N/A     82  61  47 W5        30.14S
ABINGDON*        N/A     85  53  33 NW5       30.16S
BRISTOL        PTSUNNY   85  52  32 VRB3      30.13S
SEVIERVILLE*   PTCLDY    82  59  44 VRB3      30.09S
KNOXVILLE      PTSUNNY   85  62  46 NE6       30.09F
OAK RIDGE      PTSUNNY   85  61  44 CALM      30.11F
CROSSVILLE     SUNNY     79  59  50 CALM      30.15F
NASHVILLE      CLOUDY    80  64  58 SE8       30.09F
$$

...KEY TO REMARKS...
VSB - VISIBILITY IN MILES
WCI - WIND CHILL INDEX
HX  - HEAT INDEX

$$



USA.gov is the U.S. government's official web portal to all federal, state and local government web resources and services.